Location: Aldenham
(51.6667°N, 0.3500°W)
Time: 02:57:26
(UTC+00:00)

A-11 Canister half - Pass Details

Date: 17 February 2026
Orbit: 1513 x 1687 km, 47.2° (Epoch: 13 March)

Event Time Altitude Azimuth Distance (km) Brightness Sun altitude
Rises 01:19:25 0° 275° (W) 4,908 - -48.3°
Reaches altitude 10° 01:22:38 10° 272° (W) 3,902 - -48.1°
Maximum altitude 01:32:24 63° 195° (SSW) 1,766 - -47.4°
Drops below altitude 10° 01:41:47 10° 117° (ESE) 3,761 - -46.7°
Exits shadow 01:42:35 - 116° (ESE) 4,009 11.2 -46.6°
Sets 01:44:50 0° 114° (ESE) 4,723 11.6 -46.4°
